Regional Weather Roundup
Issued by NWS

Home | Current Version | Previous Version | Text Only | Print | Product List | Glossary On
Versions: 1 2 3 4 5 6 7 8 9 10 11 12 13 14 15 16 17 18 19 20 21 22 23 24 25 26 27 28 29 30 31 32 33 34 35 36 37 38 39 40 41 42 43 44 45 46 47 48 49 50
131
ASUS43 KLMK 300110
RWRKY
KENTUCKY REGIONAL WEATHER ROUNDUP
NATIONAL WEATHER SERVICE LOUISVILLE KY
900 PM EDT SUN MAY 29 2016

NOTE "FAIR" INDICATES FEW OR NO CLOUDS BELOW 12,000 FEET
WITH NO SIGNIFICANT WEATHER AND/OR OBSTRUCTIONS TO VISIBILITY.

KYZ001>023-026-027-061>063-070>075-300200-
WESTERN AND SOUTH CENTRAL KENTUCKY

CITY           SKY/WX    TMP DP  RH WIND       PRES   REMARKS
PADUCAH        CLEAR     75  63  66 CALM      30.03R
HENDERSON      CLEAR     79  66  65 NW6       30.00F
OWENSBORO      PTCLDY    76  69  79 CALM      30.02F
HOPKINSVILLE   DRIZZLE   76  67  73 N8        30.03S
BOWLING GREEN  CLOUDY    81  68  64 W5        30.02S
GLASGOW        PTCLDY    78  68  72 CALM      30.03S
$$

KYZ024-025-028>034-038-045-046-053-300200-
NORTH CENTRAL KENTUCKY

CITY           SKY/WX    TMP DP  RH WIND       PRES   REMARKS
LOUISVILLE/SDF CLOUDY    79  61  53 W10       30.00S
LOUISVILLE/LOU PTCLDY    80  64  58 NW7       30.01R
FORT KNOX      PTCLDY    76  64  67 W5        30.02R
$$

KYZ035>037-039>044-047>052-055>060-089>105-300200-
NORTHEAST KENTUCKY

CITY           SKY/WX    TMP DP  RH WIND       PRES   REMARKS
LEXINGTON      CLEAR     78  66  66 SW5       30.03R
COVINGTON      PTCLDY    74  66  76 W7        30.00F
FRANKFORT      PTCLDY    78  66  66 SW3       30.00S
$$

KYZ054-064>069-076>088-106>120-300200-
SOUTHEAST KENTUCKY

CITY           SKY/WX    TMP DP  RH WIND       PRES   REMARKS
JACKSON        CLEAR     76  64  66 SE3       30.06F
LONDON         PTCLDY    76  63  64 SE3       30.05F
SOMERSET       CLEAR     75  64  69 CALM      30.05S
MIDDLESBORO    CLEAR     69  65  88 W3        30.07F
MONTICELLO     CLEAR     74  69  85 N9        30.06S
$$





USA.gov is the U.S. government's official web portal to all federal, state and local government web resources and services.